Retour au catalogue

STARLINK-36343

ActifCommunicationsSSO
NORAD 67816·PAYLOAD·🇺🇸 United States

Lancé Feb 15, 2026 depuis Vandenberg Space Force Base

Loading…

Prochains Passages (prochaines 24 heures)

TLE

FraisSource: CelesTrak SupGP

Époque: Sep 15, 2026, 02:59 UTC

1 67816C 26032V   26258.12479167 -.00052445  00000+0 -16282-2 0  2581
2 67816  97.2857  84.6671 0001656  91.3088 330.6681 15.33462605    10

Suivez STARLINK-36343 en temps réel avec AllMySat

Download on the App Store